Home   Weather   Bühl   Past weeks

Flag for Germany Past Weather in Bühl, Baden-Württemberg, Germany — Yesterday and Last 2 Weeks

Now
43 °F

Light rain. Passing clouds.


Feels Like: 41 °F
Forecast: 39 / 48 °F
Wind: 3 mph from North

Location: Karlsruhe - Baden Wurttemberg

Current Time: Apr 27, 2017 at 1:16:45 am

Latest Report: Apr 26, 2017 at 11:20 pm


Visibility: 6 mi

Pressure: 29.92 "Hg

Humidity: 93%

Dew Point: 41 °F

Location of BühlLocation

Past Weather in Bühl — Graph

°F

Bühl Temperature Yesterday

Maximum temperature yesterday: 48 °F (at 1:50 pm)
Minimum temperature yesterday: 39 °F (at 5:50 am)
Average temperature yesterday: 44 °F

High & Low Weather Summary for the Past Weeks

 TemperatureHumidityPressure
High66 °F (Apr 12, 2:50 pm)100% (Apr 16, 5:50 am)30.60 "Hg (Apr 16, 5:50 am)
Low27 °F (Apr 20, 5:50 am)25% (Apr 21, 3:20 pm)29.74 "Hg (Apr 25, 4:50 am)
Average48 °F66%30.14 "Hg
* Reported Apr 11 11:20 pm — Apr 26 11:20 pm, Bühl, Weather by CustomWeather, © 2017

Note: Actual official high and low records may vary slightly from our data, if they occured in-between our weather recording intervals... More about our weather records

Advertising

Bühl Weather History for the Previous 24 Hours

Scroll right to see more
 ConditionsComfort  
Time TempWeatherWind HumidityBarometerVisibility
11:20 pm
Wed, Apr 26
43 °FLight rain. Passing clouds.3 mph93%29.92 "Hg6 mi
10:50 pm43 °FLight rain. Passing clouds.2 mph93%29.92 "HgN/A
10:20 pm43 °FLight rain. Passing clouds.1 mph93%29.92 "HgN/A
9:50 pm43 °FLight rain. Passing clouds.1 mph93%29.92 "Hg5 mi
9:20 pm45 °FLight rain. Passing clouds.3 mph87%29.92 "Hg5 mi
8:50 pm45 °FLight rain. Passing clouds.3 mph81%29.89 "Hg5 mi
7:50 pm46 °FSunny.3 mph71%29.89 "Hg10 mi
7:20 pm46 °FPassing clouds.2 mph66%29.86 "HgN/A
6:50 pm46 °FSunny.2 mph71%29.86 "Hg10 mi
6:20 pm48 °FSunny.3 mph62%29.86 "Hg10 mi
5:50 pm46 °FPartly sunny.3 mph66%29.89 "HgN/A
5:20 pm48 °FBroken clouds.5 mph62%29.89 "HgN/A
4:50 pm46 °FSprinkles. Broken clouds.7 mph66%29.89 "HgN/A
4:20 pm48 °FPartly sunny.5 mph62%29.89 "HgN/A
3:50 pm48 °FPartly sunny.5 mph62%29.89 "HgN/A
3:20 pm46 °FPartly sunny.5 mph66%29.89 "HgN/A
2:50 pm48 °FBroken clouds.5 mph62%29.86 "HgN/A
2:20 pm46 °FBroken clouds.6 mph66%29.86 "Hg5 mi
1:50 pm48 °FBroken clouds.6 mph71%29.86 "Hg5 mi
1:20 pm46 °FPartly sunny.6 mph71%29.86 "Hg6 mi
12:50 pm46 °FPartly sunny.8 mph71%29.86 "Hg6 mi
12:20 pm46 °FBroken clouds.7 mph76%29.86 "HgN/A
11:50 am45 °FPartly sunny.7 mph81%29.86 "Hg6 mi
11:20 am43 °FPartly sunny.8 mph81%29.86 "Hg6 mi
10:50 am45 °FPartly sunny.8 mph81%29.86 "Hg6 mi
10:20 am45 °FPartly sunny.7 mph87%29.86 "Hg6 mi
9:50 am43 °FPartly sunny.6 mph87%29.86 "Hg6 mi
9:20 am41 °FPartly sunny.7 mph93%29.86 "Hg6 mi
8:50 am41 °FBroken clouds.6 mph93%29.86 "Hg6 mi
8:20 am41 °FPartly sunny.5 mph93%29.83 "Hg6 mi
7:50 am39 °FLight rain. Partly sunny.5 mph100%29.83 "Hg6 mi
7:20 am39 °FLight rain. Partly sunny.5 mph93%29.83 "Hg6 mi
6:50 am39 °FLight rain. Broken clouds.5 mph93%29.83 "Hg6 mi
6:20 am39 °FLight rain. Broken clouds.6 mph93%29.83 "Hg4 mi
5:50 am39 °FLight rain. Passing clouds.7 mph100%29.83 "HgN/A
5:20 am41 °FPartly cloudy.5 mph93%29.83 "Hg6 mi
4:50 am41 °FRain. Partly cloudy.6 mph93%29.83 "Hg4 mi
Weather by CustomWeather, © 2017

See weather overviewHow to use our weather pages